sat.trackr.live / text

‹ back to catalog

QIANFAN-212

NORAD 69811 · 2026-153M

PAYLOAD ACTIVE UNKNOWN

§ Identity

Operator
Country
PRC
Launch date
2026-07-04
Launch site
TAISC
Launch vehicle
Mass (kg)
RCS (m²)

External: N2YO · Heavens-Above · Gunter

§ Orbital elements

Epoch: 2026-09-20T01:34:55.126848Z

Period
102.23 min
Inclination
88.9977°
Eccentricity
0.0008159
Mean motion
14.08612333 rev/d
Perigee alt
858.2 km
Apogee alt
870.0 km
Semi-major
7,242.3 km
B*
-1.0134e-5
RAAN
351.4852°
Arg perigee
351.4384°
Mean anomaly
8.6659°
Rev number
1,100

§ Raw data

QIANFAN-2121 69811U 26153M   26263.06591582 -.00000003  00000+0 -10134-4 0  99942 69811  88.9977 351.4852 0008159 351.4384   8.6659 14.08612333 11001

JSON: /api/v1/satellites/69811 · /tle

For live sub-satellite position, see the globe view (requires WebGL).

§ Visibility from observer

Set your observer location to see the next 7 days of passes ≥ 10°. The values pass through the URL so the page stays shareable.

No JS? Fill the form by hand. The geolocation button needs JavaScript.